Flag for Estonia Weather past 2 weeks in Narva, Estonia

Now
56 °F

Sunny.


Feels Like: 56 °F
Forecast: 45 / 64 °F
Wind: 2 mph from Southwest

Location: Narva

Current Time: Sep 16, 2014 at 11:12:56 AM

Latest Report: Sep 16, 2014 at 10:00 AM


Visibility: 13 mi

Pressure: 30.45 "Hg

Humidity: 62%

Dew point: 43 °F

Location of NarvaLocation

Historic Weather in Narva — Graph

°F

Narva temperature yesterday

Maximum temperature yesterday: 64 °F (at 2:00 PM)
Minimum temperature yesterday: 41 °F (at 12:00 AM)
Average temperature yesterday: 52 °F

Past Weeks' High & Low Weather Summary

 TemperatureHumidityPressure
High72 °F (Sep 11, 4:00 PM)100% (Sep 5, 12:00 AM)30.47 "Hg (Sep 5, 12:00 AM)
Low33 °F (Sep 14, 6:00 AM)48% (Sep 3, 1:00 PM)29.94 "Hg (Sep 9, 6:00 PM)
Average56 °F86%30.24 "Hg
* Reported Sep 1 9:00 AM — Sep 16 9:00 AM, Narva, Weather by CustomWeather, © 2014

Note: Actual official high and low records may vary slightly from our data, if they occured in-between our weather recording intervals... More about our weather records

Advertising

Narva weather history for previous 24 hours

 ConditionsComfort  
Time TempWeatherWind HumidityBarometerVisibility
9:00 AM
Sep 16
50 °FSunny.No wind96%30.45 "Hg12 mi
8:00 AM39 °FSunny.No wind100%30.45 "Hg3 mi
7:00 AM36 °FSunny.No wind99%30.44 "Hg1 mi
6:00 AM33 °FPassing clouds.1 mph100%30.44 "Hg1 mi
5:00 AM35 °FClear.1 mph100%30.44 "Hg0 mi
4:00 AM35 °FPassing clouds.No wind100%30.43 "Hg0 mi
3:00 AM35 °FClear.No wind99%30.43 "Hg0 mi
2:00 AM39 °FClear.1 mph100%30.43 "Hg0 mi
1:00 AM39 °FClear.1 mph100%30.43 "Hg0 mi
12:00 AM39 °FClear.1 mph99%30.42 "Hg0 mi
11:00 PM
Sep 15
42 °FClear.1 mph100%30.41 "Hg0 mi
10:00 PM42 °FClear.1 mph97%30.40 "Hg0 mi
9:00 PM44 °FFog.1 mph97%30.40 "Hg1 mi
8:00 PM51 °FClear.1 mph82%30.40 "Hg12 mi
7:00 PM57 °FSunny.2 mph76%30.40 "Hg12 mi
6:00 PM60 °FSunny.2 mph66%30.40 "Hg12 mi
5:00 PM62 °FSunny.3 mph61%30.40 "Hg12 mi
4:00 PM63 °FPassing clouds.3 mph76%30.40 "Hg12 mi
3:00 PM62 °FSunny.5 mph78%30.41 "Hg12 mi
2:00 PM64 °FPassing clouds.3 mph76%30.42 "Hg12 mi
1:00 PM62 °FLow clouds.5 mph84%30.43 "Hg12 mi
12:00 PM61 °FLow clouds.5 mph89%30.43 "Hg12 mi
11:00 AM60 °FOvercast.2 mph88%30.42 "Hg12 mi
Weather by CustomWeather, © 2014

See weather overviewHow to use our weather pages